Ypsilanti, MI

10:55 AM EST on February 24, 2017 (GMT -0500)
Willow Run

Weather History for KYIP - April, 2014

Change the Weather History Date:

Saturday, April 26, 2014

  Actual Average Record
Temperature  
Mean Temperature 51 °F -  
Max Temperature 61 °F 65 °F 87 °F (1990)
Min Temperature 42 °F 42 °F 28 °F (2006)
Degree Days  
Heating Degree Days 14    
Growing Degree Days 1 (Base 50)    
Moisture  
Dew Point 34 °F    
Average Humidity 55    
Maximum Humidity 80    
Minimum Humidity 36    
Precipitation  
Precipitation 0.00 in - - ()
Sea Level Pressure  
Sea Level Pressure 29.92 in    
Wind  
Wind Speed 11 mph (NW)    
Max Wind Speed 17 mph    
Max Gust Speed 25 mph    
Visibility 10 miles    
Events      
Averages and records for this station are not official NWS values.
T = Trace of Precipitation, MM = Missing Value Source: NWS Daily Summary

Daily Weather History Graph

Daily Weather History Graph

Search for Another Location

Airport or City:

Trip Planner

Search our weather history database for the weather conditions in past years. The results will help you decide how hot, cold, wet, or windy it might be!

Date:

Astronomy

Apr. 26, 2014 Rise Set
Actual Time 6:36 AM EDT 8:27 PM EDT
Civil Twilight 6:06 AM EDT 8:58 PM EDT
Nautical Twilight 5:29 AM EDT 9:34 PM EDT
Astronomical Twilight 4:50 AM EDT 10:14 PM EDT
Moon 5:03 AM EDT (4/26) 5:52 PM EDT (4/26)
Length of Visible Light 14h 51m
Length of Day
13h 51m
Waning Crescent, 8% of the Moon is Illuminated
Apr 26
Waning Crescent
Apr 29
New
May 6
First Quarter
May 14
Full
May 21
Last Quarter

Hourly Weather History & Observations

Time (EDT) Temp. Windchill Dew Point Humidity Pressure Visibility Wind Dir Wind Speed Gust Speed Precip Events Conditions
12:53 AM 46.9 °F - 37.0 °F 68% 29.82 in 10.0 mi SSW 9.2 mph - N/A   Partly Cloudy
1:53 AM 45.0 °F 41.2 °F 37.0 °F 74% 29.81 in 10.0 mi SSW 6.9 mph - N/A   Clear
2:53 AM 46.0 °F 42.5 °F 37.0 °F 71% 29.78 in 10.0 mi SW 6.9 mph - N/A   Clear
3:53 AM 46.9 °F - 37.9 °F 71% 29.78 in 10.0 mi SW 9.2 mph - N/A   Clear
4:53 AM 42.1 °F 38.4 °F 36.0 °F 79% 29.78 in 10.0 mi SSW 5.8 mph - N/A   Clear
5:53 AM 43.0 °F 40.3 °F 37.0 °F 80% 29.79 in 10.0 mi West 4.6 mph - N/A   Clear
6:53 AM 44.1 °F 39.5 °F 36.0 °F 73% 29.82 in 10.0 mi WNW 8.1 mph - N/A   Clear
7:53 AM 48.0 °F - 37.9 °F 68% 29.84 in 10.0 mi WNW 10.4 mph - N/A   Clear
8:53 AM 51.1 °F - 34.0 °F 52% 29.86 in 10.0 mi WNW 17.3 mph 25.3 mph N/A   Clear
9:53 AM 53.1 °F - 34.0 °F 48% 29.87 in 10.0 mi NW 16.1 mph 24.2 mph N/A   Clear
10:53 AM 54.0 °F - 33.1 °F 45% 29.89 in 10.0 mi NW 16.1 mph - N/A   Clear
11:53 AM 55.0 °F - 32.0 °F 42% 29.91 in 10.0 mi NW 15.0 mph 23.0 mph N/A   Clear
12:53 PM 55.9 °F - 32.0 °F 40% 29.91 in 10.0 mi NNW 17.3 mph 24.2 mph N/A   Clear
1:53 PM 59.0 °F - 32.0 °F 36% 29.92 in 10.0 mi NNW 13.8 mph 20.7 mph N/A   Clear
2:53 PM 60.1 °F - 33.1 °F 36% 29.95 in 10.0 mi NW 11.5 mph - N/A   Clear
3:53 PM 60.1 °F - 33.1 °F 36% 29.97 in 10.0 mi NNW 12.7 mph 17.3 mph N/A   Partly Cloudy
4:53 PM 59.0 °F - 32.0 °F 36% 29.99 in 10.0 mi NNW 10.4 mph 19.6 mph N/A   Partly Cloudy
5:53 PM 57.9 °F - 33.1 °F 39% 30.00 in 10.0 mi North 11.5 mph 18.4 mph N/A   Clear
6:53 PM 55.9 °F - 33.1 °F 42% 30.01 in 10.0 mi North 16.1 mph 20.7 mph N/A   Clear
7:53 PM 52.0 °F - 32.0 °F 47% 30.03 in 10.0 mi North 13.8 mph - N/A   Clear
8:53 PM 48.0 °F - 32.0 °F 54% 30.06 in 10.0 mi NNE 11.5 mph - N/A   Clear
9:53 PM 46.0 °F 39.3 °F 34.0 °F 63% 30.07 in 10.0 mi NE 16.1 mph - N/A   Clear
10:53 PM 44.1 °F 38.1 °F 33.1 °F 65% 30.10 in 10.0 mi ENE 11.5 mph - N/A   Clear
11:53 PM 42.1 °F 34.9 °F 32.0 °F 67% 30.10 in 10.0 mi NE 13.8 mph - N/A   Clear